www.pogodaiklimat.ru

АРХИВ ПОГОДЫ в Медфорде

Время (UTC), дата Ветер
(напр.,м/с)
 
Видим.   Явления Облачность Т
(С)
Тd
(С)
f
(%)
Тe
(С)
Тes
(С)
Комфортность

P
(гПа)

Po
(гПа)
Тmin
(С)
Tmax
(С)
R
(мм)
SD
(см)
00:53 18.07 С  16 км    ясно  +31.1  +7.8  23  +30  +32  жарко  1011.1  964.4         
01:53 18.07 СЗ  16 км    ясно  +30.0  +8.9  27  +29  +31  жарко  1011.1  964.4         
02:53 18.07 С  16 км    ясно  +27.2  +11.7  38  +28  +28  жарко  1011.8  965.0         
03:53 18.07 С  16 км    ясно  +25.0  +12.2  45  +27  +27  жарко  1012.9  966.0         
04:53 18.07 С  16 км    ясно  +23.3  +12.8  52  +26  +26  жарко  1013.4  966.6  +23.3  +31.7     
05:53 18.07 С  16 км    8/8 1500 м  +22.2  +12.8  55  +25  +25  комфорт  1014.0  967.3         
06:53 18.07 С  16 км    8/8 1470 м  +21.7  +12.2  55  +24  +24  комфорт  1014.4  967.6         
07:53 18.07 СЗ  16 км    2/2 1500 м  +20.6  +12.8  61  +23  +23  комфорт  1014.4  967.6         
08:53 18.07 СЗ  16 км    8/8 1470 м  +20.0  +12.2  61  +22  +22  комфорт  1014.3  967.6         
09:53 18.07 СЗ  16 км    10/10 1440 м  +19.4  +12.8  66  +22  +22  комфорт  1014.2  967.6         
10:53 18.07 СЗ  16 км    10/10 1500 м  +18.9  +12.8  68  +20  +20    1014.4  967.6  +18.9  +23.3     
11:53 18.07 С  16 км    8/8 1500 м  +18.9  +12.8  68  +20  +20    1014.5  967.9         
12:53 18.07 С  16 км    8/8 1500 м  +19.4  +12.2  63  +21  +21  комфорт  1014.7  967.9         
13:53 18.07 СЗ  16 км    8/8 1650 м  +20.0  +12.8  63  +22  +22  комфорт  1015.2  968.6         
14:53 18.07 нст  16 км    5/5 1350 м  +21.1  +12.8  59  +23  +25  комфорт  1015.3  968.6         
15:53 18.07   16 км    5/5 1050 м  +22.8  +12.8  53  +26  +30  жарко  1014.8  967.9         
16:53 18.07 СВ  16 км    5/5 1950 м  +24.4  +12.2  46  +26  +31  жарко  1014.1  967.3  +18.9  +24.4     
17:53 18.07 нст  16 км    5/0 2100 м
[средняя] 
+25.6  +12.2  43  +27  +35  жарко  1013.4  966.6         
18:53 18.07 нст  16 км    5/0 2100 м
[средняя] 
+26.1  +11.1  39  +27  +37  жарко  1012.9  966.0         
19:53 18.07 В  16 км    5/0 2100 м
[средняя] 
+28.9  +9.4  30  +29  +37  жарко  1012.2  965.7         
20:53 18.07 СЗ  16 км    2/0 2100 м
[средняя] 
+29.4  +8.9  28  +29  +40  жарко  1011.5  965.0         
21:53 18.07 СЗ  16 км    2/0 2400 м
[средняя] 
+31.1  +8.3  24  +30  +38  жарко  1010.9  964.4         
22:53 18.07 СЗ  16 км    ясно  +30.6  +11.7  31  +31  +34  жарко  1010.7  964.1  +24.4  +31.1     
23:53 18.07 С  8
{11} 
16 км    ясно  +27.8  +11.1  35  +29  +29  жарко  1011.3  964.7         
00:53 19.07 С  16 км    ясно  +26.1  +8.3  32  +26  +28  жарко  1011.8  965.0         
01:53 19.07 СЗ  16 км    ясно  +25.0  +8.3  35  +25  +26  комфорт  1012.5  965.7         
02:53 19.07 СЗ  16 км    ясно  +22.2  +8.9  43  +24  +24  комфорт  1013.4  966.3         
03:53 19.07 СЗ  16 км    ясно  +20.6  +10.0  51  +23  +23  комфорт  1014.3  967.3         
04:53 19.07 СЗ  16 км    ясно  +19.4  +9.4  52  +21  +21  комфорт  1014.2  967.3  +19.4  +30.0     
05:53 19.07 СЗ  16 км    ясно  +18.9  +8.9  52  +20  +20    1014.4  967.6         
06:53 19.07   16 км    ясно  +17.2  +8.9  58  +17  +17    1014.5  967.6         
07:53 19.07 З  16 км    ясно  +16.7  +9.4  62  +17  +17    1014.5  967.6         
08:53 19.07 З  16 км    ясно  +15.6  +8.3  62  +16  +16    1014.7  967.9         
09:53 19.07   16 км    ясно  +13.9  +8.9  72  +14  +14    1015.0  968.3         
10:53 19.07   16 км    ясно  +13.9  +8.9  72  +14  +14    1015.3  968.3  +13.9  +19.4     
11:53 19.07 З  16 км    ясно  +13.3  +8.3  72  +13  +13    1015.9  968.6         
12:53 19.07   16 км    ясно  +12.8  +8.9  77  +12  +12    1016.6  969.2         
13:53 19.07   16 км    ясно  +15.0  +8.9  67  +15  +16    1016.4  969.2         
14:53 19.07   16 км    ясно  +16.7  +9.4  62  +17  +21    1016.7  969.6         
15:53 19.07   16 км    ясно  +18.9  +9.4  54  +19  +29    1016.1  968.9         
16:53 19.07   16 км    ясно  +21.1  +9.4  47  +22  +37  комфорт  1015.5  968.3  +12.8  +21.7     
17:53 19.07 ЮЗ  16 км    ясно  +22.2  +8.9  43  +24  +36  комфорт  1014.8  967.6         
18:53 19.07 З  16 км    ясно  +24.4  +6.1  31  +24  +38  комфорт  1013.9  967.0         
19:53 19.07   16 км    ясно  +26.7  +5.0  25  +26  +52  опасность
солнечного
удара 
1012.9  966.0         
20:53 19.07 нст  16 км    ясно  +28.9  +4.4  21  +27  +41  жарко  1012.2  965.4         
21:53 19.07 нст  16 км    ясно  +29.4  +4.4  20  +28  +42  жарко  1011.6  964.7         
22:53 19.07 СЗ  16 км    ясно  +31.1  +3.3  17  +29  +36  жарко  1011.1  964.4  +20.6  +31.1     
23:53 19.07 СЗ  16 км    ясно  +30.0  +3.3  18  +28  +30  жарко  1010.9  964.1         

 

Местоположение метеостанции Rogue Valley International Airport: широта 42.3811 долгота -122.8722 высота над уровнем моря 405 м.

В архиве по умолчанию представлена погода в Медфорде за последние 1-2 суток. Обновление информации о фактической погоде в базе происходит ежечасно! Архивные данные за месяц целиком и за предыдущие месяцы Вы можете получить, выбрав интересующий диапазон дат из раскрывающегося списка и нажав кнопку "Ввод!".

Внимание! Архив погоды МЕТАР в базе сайта в настоящее время начинается c 1 января 2011 г. Нет смысла пытаться выбрать более раннюю дату.

Внимание! Время в таблицах - всемирное. Для получения местного времени необходимо прибавить поправку, которая в Медфорде равна -8 ч.

Ветер - указаны скорость ветра в м/с и направление, откуда дует ветер: С - северный, СВ - северо-восточный, В - восточный, ЮВ - юго-восточный, Ю - южный, ЮЗ - юго-западный, З - западный, СЗ - северо-западный.
Видимость - горизонтальная дальность видимости в метрах или километрах. При видимости от 1 до 10 км при отсутствии осадков обычно наблюдается дымка, при ухудшении видимости до 1 км и менее - туман. В сухую погоду видимость может ухудшаться дымом, пылью или мглою.
Атмосферные явления - указаны явления, наблюдавшиеся в указанный момент времени.
Облачность - указаны через наклонную черту верхняя и нижняя облачность в баллах и высота нижней границы облаков в метрах. Внимание: облачность, как и прочие метеорологические величины в США измеряются автоматическими метеостанциями. Указанные значения в баллах носят условный характер и показывают процент времени, в течение которого, в среднем, лазерный луч высотомера отражался от облаков обратно.
T - Температура воздуха - температура, измеренная на высоте 2 м над землей.
Td - Температура точки росы - температура, при понижении до которой содержащийся в воздухе водяной пар достигнет насыщения.
f - Относительная влажность воздуха - влажноcть воздуха, измеренная на высоте 2 м над землей.
Te - Эффективная температура - температура, которую ощущает одетый по сезону человек в тени. Характеристика душности погоды. При расчете учитывается влияние влажности воздуха и скорости ветра на теплоощущения человека.
Tes - Эффективная температура на солнце - температура, которую ощущает человек, с поправкой на солнечный нагрев. Характеристика знойности погоды. Зависит от высоты солнца над горизонтом, облачности и скорости ветра. Ночью, в пасмурную погоду, а также при ветре 12 м/с и более поправка равна нулю.
P - Атмосферное давление - приведенное к уровню моря атмосферное давление.
Po - Атмосферное давление - измеренное на уровне метеостанции атмосферное давление.
Tmin - Минимальная температура - минимум температуры воздуха на высоте 2 м над землей.
Tmax - Максимальная температура - максимум температуры воздуха на высоте 2 м над землей.
R - Количество осадков - Количество выпавших осадков за 3 или 6 часов, мм.
SD - Снежный покров - Высота снежного покрова, см.